Location: Newark
(45.5000°N, 11.4167°E)
Time: 16:12:49
(UTC+00:00)

Vanguard 3 - Pass Details

Date: 28 August 2019
Orbit: 508 x 3263 km, 33.4° (Epoch: 14 September)

Event Time Altitude Azimuth Distance (km) Brightness Sun altitude
Rises 11:13:02 0° 192° (SSW) 6,864 12.4 54.2°
Reaches altitude 10° 11:22:23 10° 167° (SSE) 5,249 12.0 54.2°
Maximum altitude 11:26:55 12° 149° (SSE) 4,699 11.7 54.1°
Drops below altitude 10° 11:30:53 10° 131° (SE) 4,483 11.4 54.1°
Sets 11:37:00 0° 103° (ESE) 4,811 11.1 53.9°
